Location: Hickory_CSC
(35.7330°N, 81.3330°W)
Time: 08:32:36
(UTC-04:00)

ISS - All Passes

Search period start: 01 November 2014 00:00
Search period end: 10 November 2014 23:00
Orbit: 412 x 417 km, 51.6° (Epoch: 01 November)

Date Brightness Start Highest point End Pass type
(mag) Time Alt. Az. Time Alt. Az. Time Alt. Az.
01 Nov - 09:49:35 10° SSW 09:52:47 50° SE 09:56:01 10° ENE daylight
01 Nov - 11:27:18 10° WNW 11:29:40 18° NNW 11:32:03 10° NNE daylight
01 Nov - 16:20:57 10° NNW 16:23:33 21° NNE 16:26:08 10° E daylight
01 Nov - 17:57:12 10° WNW 18:00:21 39° SW 18:03:28 10° SSE daylight
02 Nov - 08:00:56 10° S 08:03:42 25° SE 08:06:29 10° ENE daylight
02 Nov - 09:37:24 10° W 09:40:19 28° NW 09:43:14 10° NNE daylight
02 Nov - 14:32:16 10° N 14:34:08 14° NNE 14:35:59 10° ENE daylight
02 Nov - 16:07:51 10° NW 16:11:12 82° SW 16:14:31 10° SE daylight
03 Nov - 07:12:58 10° SSE 07:14:38 13° SE 07:16:19 10° E daylight
03 Nov - 08:47:46 10° WSW 08:50:59 48° NW 08:54:13 10° NE daylight
03 Nov - 15:18:40 10° NW 15:21:56 51° NE 15:25:11 10° ESE daylight
03 Nov - 16:56:42 10° W 16:58:16 13° SW 16:59:51 10° SSW daylight
04 Nov - 07:58:24 10° SW 08:01:42 86° SE 08:05:01 10° NE daylight
04 Nov - 09:37:01 10° WNW 09:38:47 14° NNW 09:40:33 10° N daylight
04 Nov - 14:29:37 10° NNW 14:32:34 29° NE 14:35:31 10° E daylight
04 Nov - 16:06:24 10° WNW 16:09:10 24° SW 16:11:54 10° S daylight
05 Nov - 07:09:19 10° SSW 07:12:27 41° SE 07:15:36 10° ENE daylight
05 Nov - 08:46:43 10° W 08:49:15 20° NNW 08:51:47 10° NNE daylight
05 Nov - 13:40:40 10° NNW 13:43:06 18° NNE 13:45:31 10° ENE daylight
05 Nov - 15:16:44 10° WNW 15:19:57 48° SW 15:23:09 10° SSE daylight
06 Nov - 06:20:39 10° S 06:23:14 21° SE 06:25:49 10° ENE visible
06 Nov - 07:56:45 10° W 07:59:46 31° NW 08:02:47 10° NNE daylight
06 Nov - 12:51:56 10° N 12:53:31 13° NNE 12:55:05 10° NE daylight
06 Nov - 14:27:18 10° NW 14:30:38 83° NE 14:33:57 10° SE daylight
07 Nov - 05:33:02 10° SE 05:34:02 11° SE 05:35:02 10° ESE visible
07 Nov - 07:07:03 10° WSW 07:10:18 58° NW 07:13:35 10° NE daylight
07 Nov - 08:46:49 10° NW 08:47:34 11° NNW 08:48:20 10° N daylight
07 Nov - 13:38:01 10° NW 13:41:13 42° NE 13:44:23 10° ESE daylight
07 Nov - 15:15:35 10° W 15:17:36 15° SW 15:19:37 10° SSW daylight
08 Nov - 06:17:37 10° SW 06:20:54 70° SE 06:24:12 10° NE visible
08 Nov - 07:55:52 10° WNW 07:57:53 15° NNW 07:59:54 10° N daylight
08 Nov - 12:48:51 10° NNW 12:51:40 25° NNE 12:54:30 10° E daylight
08 Nov - 14:25:24 10° WNW 14:28:20 29° SW 14:31:14 10° SSE daylight
09 Nov - 05:28:30 10° SSW 05:31:31 34° SE 05:34:33 10° ENE visible
09 Nov - 07:05:33 10° W 07:08:14 22° NNW 07:10:55 10° NNE daylight
09 Nov - 11:59:49 10° NNW 12:02:02 17° NNE 12:04:15 10° ENE daylight
09 Nov - 13:35:40 10° NW 13:38:57 59° SW 13:42:13 10° SE daylight
10 Nov - 04:39:52 10° S 04:42:10 18° SE 04:44:28 10° E visible
10 Nov - 06:15:31 10° WSW 06:18:36 37° NW 06:21:43 10° NNE visible
10 Nov - 11:11:05 10° N 11:12:16 12° NNE 11:13:28 10° NE daylight
10 Nov - 12:46:09 10° NW 12:49:28 68° NE 12:52:46 10° SE daylight
